This is the latest recevied weather packets stored in our database for station/object KD4IZ-13. If no packets are shown the sender has not sent any weather packets the latest 10 day(s).
| Time | Temp. | Humidity | Pressure | Rain* | Wind** | Luminosity | Snow |
|---|---|---|---|---|---|---|---|
| 1778115802 | 17.78° C | 95% | 1011.8 hPa | 0 mm | - | 0 W/m² | - |
| 1778115499 | 17.78° C | 95% | 1011.7 hPa | 0 mm | - | 0 W/m² | - |
| 1778115195 | 17.78° C | 95% | 1011.3 hPa | 0 mm | - | 0 W/m² | - |
| 1778114887 | 17.78° C | 95% | 1011.6 hPa | 0 mm | - | 0 W/m² | - |
| 1778114584 | 17.78° C | 96% | 1011.5 hPa | 0 mm | - | 0 W/m² | - |
| 1778114281 | 17.78° C | 96% | 1011.2 hPa | 0 mm | - | 0 W/m² | - |
| 1778113976 | 17.78° C | 98% | 1011.2 hPa | 0 mm | - | 0 W/m² | - |
| 1778113672 | 18.33° C | 99% | 1011.2 hPa | 0 mm | - | 0 W/m² | - |
| 1778113368 | 18.33° C | 98% | 1010.9 hPa | 0 mm | - | 0 W/m² | - |
| 1778113065 | 18.33° C | 98% | 1011 hPa | 0 mm | - | 0 W/m² | - |
| 1778112763 | 18.33° C | 98% | 1010.8 hPa | 0 mm | - | 0 W/m² | - |
| 1778112459 | 18.33° C | 98% | 1010.9 hPa | 0 mm | - | 0 W/m² | - |
| 1778112155 | 18.33° C | 97% | 1010.9 hPa | 0 mm | - | 0 W/m² | - |
| 1778111852 | 18.89° C | 96% | 1010.7 hPa | 0 mm | - | 0 W/m² | - |
| 1778111547 | 18.89° C | 95% | 1010.4 hPa | 0 mm | - | 0 W/m² | - |
| 1778111244 | 18.89° C | 94% | 1010.2 hPa | 0 mm | - | 1 W/m² | - |
| 1778110941 | 18.89° C | 93% | 1010.3 hPa | 0 mm | - | 1 W/m² | - |
| 1778110639 | 18.89° C | 93% | 1010.3 hPa | 0 mm | - | 0 W/m² | - |
| 1778110335 | 19.44° C | 93% | 1010.3 hPa | 0 mm | - | 3 W/m² | - |
| 1778110032 | 19.44° C | 93% | 1010.1 hPa | 0 mm | - | 9 W/m² | - |
| 1778109727 | 19.44° C | 92% | 1010.1 hPa | 0 mm | - | 12 W/m² | - |
| 1778109424 | 19.44° C | 92% | 1010 hPa | 0 mm | - | 16 W/m² | - |
| 1778109123 | 19.44° C | 91% | 1010 hPa | 0 mm | - | 19 W/m² | - |
| 1778108819 | 19.44° C | 91% | 1010 hPa | 0 mm | - | 46 W/m² | - |
| 1778108516 | 19.44° C | 92% | 1009.9 hPa | 0 mm | - | 49 W/m² | - |
* Rain latest hour (hover to see other rain measurements)
** Current wind speed in m/s (hover to see current wind gust speed)